Location: Molino di Ancona
(43.6167°N, 13.3667°E)
Time: 23:23:38
(UTC+00:00)

USA 238 DEB - Pass Details

Date: 15 December 2019
Orbit: 1024 x 1188 km, 63.4° (Epoch: 16 January)

Event Time Altitude Azimuth Distance (km) Brightness Sun altitude
Rises 05:39:10 0° 236° (SW) 3,773 6.3 -9.4°
Reaches altitude 10° 05:41:51 10° 242° (WSW) 2,835 5.6 -9.0°
Maximum altitude 05:48:17 48° 316° (NW) 1,355 3.9 -7.9°
Drops below altitude 10° 05:54:58 10° 30° (NNE) 2,941 6.1 -6.8°
Sets 05:57:49 0° 36° (NE) 3,926 6.8 -6.3°
